Terminal Aerodrome Forecast
Issued by NWS

Home | Current Version | Previous Version | Text Only | Print | Product List | Glossary On
Versions: 1 2 3 4 5 6 7 8 9 10 11 12 13 14 15 16 17 18
075
FTUS43 KJKL 300819 AAB
TAFSJS
TAF AMD
KSJS 300819Z 3009/0106 00000KT 3SM BR BKN003 OVC010
     FM301200 29002KT 4SM BR OVC025
     FM301300 30003KT P6SM SCT025 BKN035=

USA.gov is the U.S. government's official web portal to all federal, state and local government web resources and services.